Weather in Osnabruck

Germany     52˚16′54″N   8˚02′34″E
temp.,
°C
wind,
m/s
gust,
m/s
humid.,
%
clouds,
%
prec.,
mm/h
press.,
hPa
HPBL,
m
2 december, wed
wed201:00+4˚ene358899 0.0 1021262
04:00+3˚ene368999 0.0 1020246
07:00+3˚e258592 0.0 1020215
10:00+2˚e238440 0.0 1019159
13:00+4˚se127720 0.0 1016338
16:00+4˚sse128280 0.0 1014287
19:00+4˚s128389 0.0 1013254
22:00+4˚s2587100 0.0 1011239
3 december, thu
thu301:00+4˚ssw3887100 0.0 1009422
04:00+4˚ssw4887100 0.0 1006443
07:00+4˚s4987100 0.0 1004487
10:00+4˚ssw51086100 0.0 1002743
13:00+5˚s51077100 0.0 999845
16:00+5˚s61181100 0.0 996814
19:00+4˚sse61283100 0.3 994790
22:00+4˚sse71382100 0.1 992911
4 december, fri
fri401:00+5˚sse61377100 0.2 990937
04:00+5˚sse61474100 0.0 9871078
07:00+6˚sse71473100 0.0 987919
10:00+6˚sse71376100 0.0 987909
13:00+8˚s6146999 0.0 9881360
16:00+7˚se51176100 0.0 988809
19:00+5˚s5969100 0.0 990522
22:00+4˚s3776100 0.0 992236
5 december, sat
sat501:00+3˚sse248281 0.0 99399
04:00+2˚ese128469 0.0 99327
07:00+3˚ese128284 0.1 99540
10:00+3˚sw1191100 1.6 996126
13:00+4˚n1287100 1.8 996331
16:00+4˚nnw1289100 0.1 997244
19:00+4˚nnw1289100 0.1 997212
22:00+4˚wnw1289100 0.0 998178
6 december, sun
sun601:00+4˚n1189100 0.0 998134
04:00+4˚ese0189100 0.0 997137
07:00+4˚e2390100 0.0 998199
10:00+4˚ene2494100 0.6 998246
13:00+4˚e3491100 1.0 998301
16:00+4˚e2389100 0.0 998266
19:00+4˚e1289100 0.0 99997
22:00+3˚e1292100 0.0 99965